Regional Weather Roundup
Issued by NWS Memphis, TN

Home | Current Version | Previous Version | Text Only | Print | Product List | Glossary On
Versions: 1 2 3 4 5 6 7 8 9 10 11 12 13 14 15 16 17 18 19 20 21 22 23 24 25 26 27 28 29 30 31 32 33 34 35 36 37 38 39 40 41 42 43 44 45 46 47 48 49 50
000
ASUS44 KMEG 140000
RWRMEG
MEMPHIS CWA HOURLY WEATHER ROUNDUP
NATIONAL WEATHER SERVICE MEMPHIS TN
700 PM CDT SUN JUL 13 2014

...WEST TENNESSEE...

CITY           SKY/WX    TMP DP  RH WIND       PRES   REMARKS
MEMPHIS INTL   MOSUNNY   89  73  59 SW7       29.99R HX  97
6HR MIN TEMP:  89; 6HR MAX TEMP:  93;

NWS MEMPHIS      N/A     89 N/A N/A MISG        N/A
JACKSON        SUNNY     89  73  59 SW6       29.99S HX  97
6HR MIN TEMP:  89; 6HR MAX TEMP:  93;

LEXINGTON      SUNNY     88  73  62 SW5       29.99S HX  96
SAVANNAH       MOSUNNY   90  73  58 W3        30.01S HX  98
DYERSBURG      SUNNY     90  70  51 SW7       29.98R HX  95
6HR MIN TEMP:  90; 6HR MAX TEMP:  93;

UNION CITY     SUNNY     90  73  58 CALM      29.95F HX  98
PARIS          SUNNY     88  73  62 SW7       29.98S HX  96


...EASTERN ARKANSAS...

CITY           SKY/WX    TMP DP  RH WIND       PRES   REMARKS
JONESBORO      SUNNY     90  73  57 SW13      29.96S HX  98
6HR MIN TEMP:  88; 6HR MAX TEMP:  93;

WEST MEMPHIS   SUNNY     89  76  65 SW5       29.97R HX 100
6HR MIN TEMP:  89; 6HR MAX TEMP:  93;

BATESVILLE     SUNNY     90  73  58 S5        29.96F HX  98
6HR MIN TEMP:  90; 6HR MAX TEMP:  93;

WALNUT RIDGE   SUNNY     91  70  49 S12       29.94S HX  97
6HR MIN TEMP:  91; 6HR MAX TEMP:  95;

BLYTHEVILLE    SUNNY     91  73  55 SW8       29.97R HX  99
6HR MIN TEMP:  91; 6HR MAX TEMP:  94;

PINE BLUFF     SUNNY     91  71  51 SW3       29.98S HX  97
6HR MIN TEMP:  91; 6HR MAX TEMP:  95; 6HR PCP: TRACE;

MONTICELLO     SUNNY     89  75  63 SE5       29.99S HX  99
6HR MIN TEMP:  89; 6HR MAX TEMP:  95;



...NORTH MISSISSIPPI...

CITY           SKY/WX    TMP DP  RH WIND       PRES   REMARKS
TUPELO         SUNNY     89  70  53 SW3       30.00S HX  94
6HR MIN TEMP:  89; 6HR MAX TEMP:  93;

OLIVE BRANCH   PTSUNNY   88  79  74 S7        29.99S HX 102
CLARKSDALE     SUNNY     91  73  55 CALM      29.99R HX 100
GREENWOOD      MOSUNNY   90  73  57 SW5       30.00R HX  98
6HR MIN TEMP:  90; 6HR MAX TEMP:  93;

COLUMBUS       MOSUNNY   90  73  56 S2        30.01S HX  97
6HR MIN TEMP:  90; 6HR MAX TEMP:  92;

STARKVILLE     FAIR      88  75  66 CALM      30.01S HX  97
GOLDEN TRIANGL MOSUNNY   93  73  52 CALM      30.02R HX 102


...SOUTHEAST MISSOURI...

CITY           SKY/WX    TMP DP  RH WIND       PRES   REMARKS
WEST PLAINS    MOSUNNY   85  71  63 S6        29.99F HX  90
6HR MIN TEMP:  85; 6HR MAX TEMP:  88;

POPLAR BLUFF   MOSUNNY   89  73  59 SW7       29.93F HX  97
6HR MIN TEMP:  88; 6HR MAX TEMP:  93;

CAPE GIRARDEAU SUNNY     89  74  60 SW9       29.93S HX  98
6HR MIN TEMP:  89; 6HR MAX TEMP:  93;



...NORTHWEST ALABAMA...

CITY           SKY/WX    TMP DP  RH WIND       PRES   REMARKS
MUSCLE SHOALS  MOSUNNY   89  68  49 SW6       30.02S HX  93
6HR MIN TEMP:  89; 6HR MAX TEMP:  94;



...MIDDLE TENNESSEE...

CITY           SKY/WX    TMP DP  RH WIND       PRES   REMARKS
NASHVILLE      MOSUNNY   89  70  53 SW8       30.00R HX  94
6HR MIN TEMP:  89; 6HR MAX TEMP:  95;

CLARKSVILLE    SUNNY     89  71  55 SW12      29.97S HX  95
6HR MIN TEMP:  89; 6HR MAX TEMP:  95;

COLUMBIA       SUNNY     90  73  58 W5        30.00S HX  98


...WESTERN KENTUCKY...

CITY           SKY/WX    TMP DP  RH WIND       PRES   REMARKS
PADUCAH        SUNNY     91  74  57 SW6       29.93S HX 100
6HR MIN TEMP:  91; 6HR MAX TEMP:  94;

FORT CAMPBELL  SUNNY     90  72  55 SW12      29.97S HX  96
6HR MIN TEMP:  90; 6HR MAX TEMP:  94;



...CENTRAL ARKANSAS...

CITY           SKY/WX    TMP DP  RH WIND       PRES   REMARKS
LITTLE ROCK    MOSUNNY   91  68  46 SW8       29.97S HX  95
6HR MIN TEMP:  91; 6HR MAX TEMP:  95;



SKY/WX REPORTED AS FAIR MEANS FEW OR NO CLOUDS BELOW
12 THOUSAND FEET.



USA.gov is the U.S. government's official web portal to all federal, state and local government web resources and services.